Location: Fensholt
(55.9856°N, 10.0808°E)
Time: 18:20:26
(UTC+00:00)

Cosmos 1758 Rocket - Pass Details

Date: 07 June 2020
Orbit: 603 x 635 km, 82.5° (Epoch: 03 July)

Event Time Altitude Azimuth Distance (km) Brightness Sun altitude
Exits shadow 00:15:28 14° 187° (S) 1,722 5.2 -10.3°
Maximum altitude 00:19:13 84° 102° (ESE) 635 3.6 -10.2°
Drops below altitude 10° 00:23:42 10° 13° (NNE) 2,018 7.8 -10.0°
Sets 00:25:57 0° 13° (NNE) 2,935 9.4 -9.9°
